TURKMENALEM52E/MONACOSAT

Last updated on Sun Jul 26 2026 00:03:05 GMT+0000 (Coordinated Universal Time)

1 40617U 15023A 26206.11960194 .00000109 00000+0 00000+0 0 9994 2 40617 0.0181 86.3551 0002989 32.2281 279.3297 1.00270050 41227
UTC large
Height (km)
Speed (km/s)
/
Latitude / Longitude
Inclination (degrees)
Orbital Period (minutes)
Azimuth
Elevation
Range (km)
Doppler Factor

Next 0 passes for location: London (51.5072 / 0.1276)

No passes found over London.
TURKMENALEM52E/MONACOSAT